Regional Weather Roundup
Issued by NWS

Home | Current Version | Previous Version | Graphics & Text | Print | Product List | Glossary On
Versions: 1 2 3 4 5 6 7 8 9 10 11 12 13 14 15 16 17 18 19 20 21 22 23 24 25 26 27 28 29 30 31 32 33 34 35 36 37 38 39 40 41 42 43 44 45 46 47 48 49 50
000
ASUS43 KMKX 032159
RWRWI

WISCONSIN REGIONAL WEATHER ROUNDUP
NATIONAL WEATHER SERVICE MILWAUKEE/SULLIVAN WI
400 PM CST TUE MAR 03 2015

NOTE: "FAIR" INDICATES FEW OR NO CLOUDS BELOW 12,000 FEET WITH NO
SIGNIFICANT WEATHER AND/OR OBSTRUCTIONS TO VISIBILITY.

WIZ001-002-006>008-014>016-023>028-032300-
NORTHWEST WISCONSIN

CITY           SKY/WX    TMP DP  RH WIND       PRES   REMARKS
SUPERIOR ARPT  LGT SNOW  24  11  59 NW21G26   29.66R WCI   9
ASHLAND        FLURRIES  27  18  69 W16G24    29.59R WCI  15
HAYWARD        LGT SNOW  26  17  68 MISG      29.60R
SIREN          PTSUNNY   28  11  50 NW15G24   29.66R HAZE    WCI  16
CUMBERLAND     FLURRIES  27  19  74 W16G24    29.62R WCI  14
RICE LAKE      CLOUDY    28  19  70 W10G17    29.64S WCI  18
CHETEK         CLOUDY    28  19  71 W8G16     29.63R WCI  19
LADYSMITH      CLOUDY    28  20  73 W14       29.61R WCI  17
EAU CLAIRE     NOT AVBL
MENOMONIE      CLOUDY    29  21  70 W14G23    29.66R WCI  19
NEW RICHMOND   CLOUDY    27  17  66 NW22      29.68R WCI  13
OSCEOLA        PTSUNNY   30  16  56 NW15      29.72R WCI  19
$$

WIZ003>005-009-010-017-018-032300-
NORTH CENTRAL WISCONSIN

CITY           SKY/WX    TMP DP  RH WIND       PRES   REMARKS
MANITOWISH WTR LGT SNOW  24  18  78 W13       29.51R WCI  12
ARBOR VITAE    CLOUDY    25  18  76 W8        29.50S WCI  16
WOODRUFF       CLOUDY    25  18  76 W8        29.50S WCI  16
RHINELANDER    FLURRIES  25  17  72 W14       29.51R WCI  13
EAGLE RIVER    LGT SNOW  24  17  72 W13G22    29.50R WCI  13
LAND O LAKES   LGT SNOW  26  19  76 W10       29.49R WCI  15
PHILLIPS       CLOUDY    25  18  75 W9G17     29.55R WCI  15
TOMAHAWK       LGT SNOW  26  19  74 W9G18     29.54R WCI  16
MEDFORD        CLOUDY    26  19  75 W15G25    29.56R WCI  13
MERRILL        CLOUDY    28  19  70 NW10      29.55R WCI  18
$$

WIZ029-030-035-036-043>047-032300-
CENTRAL WISCONSIN

CITY           SKY/WX    TMP DP  RH WIND       PRES   REMARKS
WAUSAU         CLOUDY    27  19  72 W16       29.55R WCI  15
MOSINEE        CLOUDY    27  19  74 W14G20    29.57S WCI  15
MARSHFIELD     CLOUDY    28  20  71 W15       29.60R WCI  16
STEVENS POINT  CLOUDY    26  19  75 W8G16     29.58R WCI  18
WAUPACA        CLOUDY    30  22  72 W10G17    29.60R WCI  21
WAUTOMA        NOT AVBL
WISC RAPIDS    CLOUDY    29  20  69 W10       29.62R WCI  20
CAMP DOUGLAS   NOT AVBL
$$

WIZ011>013-019>022-031-037>040-048>050-032300-
NORTHEAST WISCONSIN

CITY           SKY/WX    TMP DP  RH WIND       PRES   REMARKS
ANTIGO         CLOUDY    26  18  72 W16       29.52R WCI  14
SHAWANO        PTSUNNY   30  21  69 W10G17    29.56R WCI  21
OCONTO         CLOUDY    28  22  77 W9G18     29.55R WCI  19
STURGEON BAY   CLOUDY    27  19  74 W12G17    29.55R WCI  16
GREEN BAY      CLOUDY    28  21  75 W12       29.57R WCI  18
MANITOWOC      NOT AVBL
APPLETON       CLOUDY    27  21  80 W15       29.59R WCI  15
CLINTONVILLE   CLOUDY    30  21  69 W9G17     29.58R WCI  22
OSHKOSH        CLOUDY    28  21  75 W15       29.59R WCI  16
$$

WIZ032>034-041-042-053>061-032300-
SOUTHWEST WISCONSIN

CITY           SKY/WX    TMP DP  RH WIND       PRES   REMARKS
LA CROSSE      CLOUDY    32  23  69 NW14      29.68R WCI  22
SPARTA         CLOUDY    31  23  73 W9        29.65S WCI  23
VIROQUA        CLOUDY    30  24  78 W15       29.64R WCI  19
BOSCOBEL       CLOUDY    33  23  66 VRB7      29.70R WCI  27
PRAIRIE DU CHI CLOUDY    32  23  68 W15       29.71R WCI  22
PLATTEVILLE    CLOUDY    31  26  82 W12G17    29.68R WCI  22
$$

WIZ056-057-062-063-064-067-068-032300-
SOUTH CENTRAL WISCONSIN

CITY           SKY/WX    TMP DP  RH WIND       PRES   REMARKS
REEDSBURG      CLOUDY    29  23  78 W15       29.64R WCI  18
BARABOO/DELLS  CLOUDY    29  22  75 W9        29.63R WCI  20
LONE ROCK      NOT AVBL
MINERAL POINT  CLOUDY    32  27  80 W14G24    29.66R WCI  22
MADISON        CLOUDY    31  23  72 W12       29.66R WCI  22
MIDDLETON      CLOUDY    32  25  74 NW13G21   29.65R WCI  22
WATERTOWN      CLOUDY    30  26  86 W13       29.62R WCI  20
MONROE         CLOUDY    32  28  86 W15       29.65R WCI  22
JANESVILLE     CLOUDY    34  28  80 W18       29.65R WCI  23
$$

WIZ051-052-058>065-066-070>072-032300-
SOUTHEAST WISCONSIN

CITY           SKY/WX    TMP DP  RH WIND       PRES   REMARKS
MILWAUKEE      CLOUDY    34  27  75 W14G23    29.63R WCI  25
WAUKESHA       CLOUDY    28  25  86 W16G23    29.63R WCI  17
MILWAUKEE/TIMM CLOUDY    30  25  80 W15G23    29.62R WCI  19
RACINE         CLOUDY    33  27  78 W17G24    29.64R WCI  22
BURLINGTON     CLOUDY    31  27  87 W9        29.64R WCI  23
KENOSHA        CLOUDY    33  28  81 W17G24    29.63R WCI  22
FOND DU LAC    CLOUDY    29  22  75 W15G21    29.61R WCI  18
SHEBOYGAN      CLOUDY    29  22  75 W20G26    29.59R WCI  16
WEST BEND      CLOUDY    30  23  74 W13G18    29.60R WCI  20
JUNEAU         CLOUDY    29  24  81 W10G21    29.63R WCI  20
$$

LSZ147-162-032300-
LAKE SUPERIOR

STATION/POSITION TIME  TEMP    WIND        PRES    WAVE
                       AIR SEA DIR/SP/G            HT/PER
                 (UTC) (F)     (DEG/KT/KT) (MB)    (FT/S)
DEVILS ISLAND    2100   26     230/ 20/ 23 1000.6S
PORT WING        2100   26     280/ 23     1002.0
SAXON HARBOR     2100   28     290/  5/ 11 1001.4
$$

LMZ867-665-643>646-032300-
LAKE MICHIGAN

STATION/POSITION TIME  TEMP    WIND        PRES    WAVE
                       AIR SEA DIR/SP/G            HT/PER
                 (UTC) (F)     (DEG/KT/KT) (MB)    (FT/S)
NORTHPORT PIER   2108   29     260/  4/ 15  999.3F
SISTER BAY       2113   37     290/  9/ 11   N/A
KEWAUNEE LAKESHO 2100   29     280/ 11/ 19  999.8R
SHEBOYGAN LAKESH 2100   31     270/  7/  9 1002.3R
PORT WASHINGTON  2100   32     270/  4/  6 1002.7R
MILWAUKEE LAKESH 2100   33     270/ 12/ 19   N/A
KENOSHA   LAKESH 2100   34     260/ 15/ 21 1003.4R
$$

TC  - TEMPERATURE IN CELSIUS
VSB - VISIBILITY IN STATUTE MILES
WCI - WIND CHILL INDEX
HX  - HEAT INDEX



USA.gov is the U.S. government's official web portal to all federal, state and local government web resources and services.